Über Dalinghaowan
Group: 3 satellites
Beschreibung wird geladen...
Live-Position
3D-Globus wird geladen...
Nächste Überflüge
Höhenverlauf
Altitude vs Time
uPlot chart will show altitude changes over time
Zweizeiliger Elementsatz
1 63993U 25100M 25341.27303522 .00040844 00000-0 15292-2 0 9998
2 63993 97.3890 53.5228 0009926 270.1599 89.8503 15.27129804 31479
Epoch: 7. Dez. 2025 •
Age: 20 hours
Aktueller Status
Höhe 498.4 km
Geschwindigkeit 7.62 km/s
Subsatellitenpunkt -50.56°S,
111.73°E
Startdatum 14. Mai 2025
Alter 0.5 years
Typ other
Technische Details
Klassifizierung Payload
Masse 50.00 kg
Trockenmasse 50.00 kg
Gesamtmasse 50.00 kg
Länge 0.30 m
Durchmesser 0.30 m
Spannweite 0.30 m
Form Box + 2 pan
Hersteller GUOX
Bus-Typ XSD
Phasenstatus In Orbit
Besitzer/Staat GUOX/ZJLAB/CN
Große Konstellationen
Loading constellations...